STARLINK-31762, 59614

Orbit data source: Space-Track

STARLINK-31762, 59614 is a payload satellite owned by SpaceX/Seattle (US) in LEO that was launched on Sun, 28 Apr 2024 UTC via an FALCON 9 launch vehicle from the Air Force Eastern Test Range (AFETR). Payload-class satellites include a variety of spacecraft equipped with specific instruments for various scientific and technological missions. These include communications satellites like Starlink; space stations such as the ISS; scientific satellites like the Hubble; Earth observation satellites from companies like Planet Labs, Umbra, and HawkEye 360; GPS; miniature CubeSats for education and research; and military/defense satellites.

Loading next visibility...
Identifier
59614, 2024-080P
Orbit
LEO
Country
Flag of USUS
Related business
Manufacturer
SpaceX/Seattle
Mission
Operational Commercial Communications
Bus & Motor
STARLINK V2M, Unknown motor
Mass
730 kg wet, ~700 kg dry
Launch date (UTC)
2024-04-28 (2 years ago)
Launch vehicle
FALCON 9
Launch site
Air Force Eastern Test Range (AFETR)
Object type
Payload
Rocket body
Debris
Shape & HBR
Box + 2 Pan, 17.7 m
Radar Cross Section
33.884 m², Large (>1 m²)

Expand to show TLE details & history
Last TLE update: 2 days ago

TLE from 2 days ago
0 STARLINK-31762
1 59614U 24080P   26171.03592765  .00001477  00000-0  63199-4 0  9994
2 59614  43.0016 180.0423 0001605 276.5410  83.5259 15.27579289120185
Epoch: 2026-06-20T00:51Z
TLE epoch observation values (Epoch: 2026-06-20T00:51:44.148Z)
Latitude
-0.00003°
Longitude
-101.14801°
Altitude
482.703 km
Speed
7.626 km/s
True Right ascension
12h 00m 10s
True Declination
0° 00' 00"
Sunlit
Object was in daylight at epoch
Visualization orbit readout
Latitude
Unknown
Longitude
Unknown
Altitude
Unknown
Speed
Unknown
Apparent Right ascension
Unknown
Apparent Declination
Unknown
Sunlit
N/A
Visualization observer readout
Local Sidereal Time
23:18:54
Azimuth
Unknown
Elevation
Unknown
Doppler factor
Unknown
Orbital elements
Apogee altitude
486.098 km
Perigee altitude
483.895 km
Semi-major axis
6,863.133 km
Eccentricity
0.00016
Inclination
43.0016°
RAAN
180.0423°
Arg. of periapsis
276.541°
True anomaly
83.54418°
Mean anomaly
83.5259°
Eccentric anomaly
83.53504°
Mean motion
3.81733 °/min
Orbital period
94.31 mins
BSTAR
0.000063199
Loading maneuver chart data...
Computing Atmospheric mass density...
Loading historical data...
Loading historical data...
Loading historical data...
Loading historical data...
Loading historical data...
Loading historical data...
Loading historical data...

Documentation

Showing up to 5 results
|